Hourly Weather Roundup
Issued by NWS Central Illinois

Home | Current Version | Previous Version | Text Only | Print | Product List | Glossary On
Versions: 1 2 3 4 5 6 7 8 9 10 11 12 13 14 15 16 17 18 19 20 21 22 23 24 25 26 27 28 29 30 31 32 33 34 35 36 37 38 39 40 41 42 43 44 45 46 47 48 49 50
000
NZUS43 KILX 222210
HWRILX

AREA WEATHER ROUNDUP
NATIONAL WEATHER SERVICE, LINCOLN IL
500 PM CDT FRI MAY 22 2015


CITY           SKY/WX    TMP DP  RH WIND       PRES   REMARKS
BLOOMINGTON    CLOUDY    78  38  23 NW8       30.22S
CHAMPAIGN      CLOUDY    77  38  24 W13       30.20S
DANVILLE       PTSUNNY   74  42  31 CALM      30.19S
DECATUR        CLOUDY    76  42  29 W8        30.20F
EFFINGHAM      CLOUDY    75  38  26 SW7       30.24S
FLORA          CLOUDY    74  41  30 CALM      30.24R
GALESBURG      MOSUNNY   75  39  27 W3        30.19F
JACKSONVILLE   PTSUNNY   77  37  23 CALM      30.20F
LACON          CLOUDY    75  43  31 S5        30.18F
LAWRENCEVILLE  CLOUDY    74  46  36 W8        30.23F
LITCHFIELD     CLOUDY    73  42  32 CALM      30.23S
$$


CITY           SKY/WX    TMP DP  RH WIND       PRES   REMARKS
LINCOLN        CLOUDY    79  37  22 N5        30.18S
MACOMB         PTSUNNY   75  28  17 SW3       30.22S
MATTOON        CLOUDY    73  43  33 W6        30.20F
MT CARMEL AP   CLOUDY    77  36  22 NW3       30.22F
OLNEY-NOBLE AP CLOUDY    72  45  37 W3        30.23S
PARIS          PTSUNNY   76  40  26 CALM      30.21S
PEORIA         PTSUNNY   79  38  22 W6        30.19F
PONTIAC        PTSUNNY   77  36  23 CALM      30.20S
RANTOUL        CLOUDY    78  40  25 W6        30.20S
ROBINSON       CLOUDY    75  44  32 W7        30.23F
SPRINGFIELD    CLOUDY    80  40  23 NW7       30.21S
TAYLORVILLE    CLOUDY    73  43  33 W3        30.22S
$$

...REGIONAL REPORTS...


CITY           SKY/WX    TMP DP  RH WIND       PRES   REMARKS
CHICAGO O`HARE PTSUNNY   62  25  24 E10       30.24S
KANKAKEE       CLOUDY    72  42  33 NE9       30.22S
MOLINE         CLOUDY    77  37  23 NW6       30.18F
MOUNT VERNON   CLOUDY    73  46  38 W7        30.25R
PITTSFIELD     PTSUNNY   74  42  32 SW5       30.23S
QUINCY         CLOUDY    73  43  33 W6        30.21S
ROCKFORD       CLOUDY    73  39  29 N5        30.22F
$$


CITY           SKY/WX    TMP DP  RH WIND       PRES   REMARKS
BURLINGTON     PTSUNNY   74  42  31 W7        30.19F
CEDAR RAPIDS   CLOUDY    74  35  24 SW8       30.19S
DES MOINES     CLOUDY    75  39  27 W6        30.19F
KIRKSVILLE     CLOUDY    67  53  61 SW6       30.24R
OTTUMWA        CLOUDY    73  46  38 W6        30.18F
ST LOUIS       CLOUDY    75  48  38 W10       30.24S
$$


CITY           SKY/WX    TMP DP  RH WIND       PRES   REMARKS
TERRE HAUTE    PTSUNNY   74  48  39 S5        30.22S
EVANSVILLE     PTSUNNY   74  49  41 W6        30.24S
INDIANAPOLIS   CLOUDY    75  42  30 W10       30.20S
LAFAYETTE      PTSUNNY   72  41  32 W7        30.20S
MADISON        PTSUNNY   72  38  29 CALM      30.20F
MILWAUKEE      PTSUNNY   56  29  35 E7        30.26F
$$




USA.gov is the U.S. government's official web portal to all federal, state and local government web resources and services.